Сагастыр

Россия / Республика Саха (Якутия)     73°22′52″N   126°35′49″E
темп.,
°C
ветер,
м/с
пор.,
м/с
влажн.,
%
обл.,
%
осадки,
мм/ч
давл.,
гПа
погр.,
м
27 февраля, сб
сб2700:00−33юз339033 0.0 103220
03:00−32юз238862 0.0 103119
06:00−31ююз238799 0.0 103128
09:00−31ю228697 0.0 103119
12:00−29ю2285100 0.0 1031143
15:00−28ю2287100 0.0 1030184
18:00−28ююв2296100 0.1 1030154
21:00−28юв2295100 0.1 1029146
28 февраля, вс
вс2800:00−28юв2394100 0.0 1028176
03:00−30юв2297100 0.0 102719
06:00−32юв229787 0.0 102719
09:00−33ююв229748 0.0 102719
12:00−33вюв12960 0.0 102719
15:00−33вюв129511 0.0 102719
18:00−34в22970 0.0 102819
21:00−34в229813 0.0 102819
1 марта, пн
пн100:00−34всв229869 0.0 102819
03:00−34всв229875 0.0 102819
06:00−34всв339847 0.0 102819
09:00−34всв339858 0.0 102819
12:00−32всв349848 0.0 102749
15:00−32всв349852 0.0 102731
18:00−32всв339975 0.0 102719
21:00−32всв339987 0.0 102719
2 марта, вт
вт200:00−33всв2399100 0.0 102819
03:00−33в229997 0.0 102719
06:00−33в229981 0.0 102819
09:00−34в229849 0.0 102819
12:00−33в229712 0.0 102919
15:00−33вюв22956 0.0 102919
18:00−32вюв129556 0.0 103019
21:00−30в129677 0.0 103191
3 марта, ср
ср300:00−31вюв129797 0.0 103019
03:00−32в1110095 0.1 103019
06:00−30св229899 0.0 103021
09:00−30св2399100 0.0 103019
12:00−29св23100100 0.0 103022
15:00−29св34100100 0.0 102928
18:00−30св34100100 0.0 102925
21:00−31всв449999 0.0 102929